ARIANE 40+ R/B

Last updated on Mon Sep 21 2026 00:02:08 GMT+0000 (Coordinated Universal Time)

1 23561U 95021B 26263.45657086 .00000135 00000+0 56942-4 0 9992 2 23561 98.4327 332.1155 0005510 279.1633 91.3879 14.39874721647273
UTC large
Height (km)
Speed (km/s)
/
Latitude / Longitude
Inclination (degrees)
Orbital Period (minutes)
Azimuth
Elevation
Range (km)
Doppler Factor

Next 0 passes for location: London (51.5072 / 0.1276)

No passes found over London.
ARIANE 40+ R/B